• In Hungary
  • List of Countries
  • For 7 days
  • Water Temperature
  • Satellite Maps
  • Weather Map
  • News
  • Weather Widgets
  • user-avatar
    Login

    Hourly Weather Akordat

    Today, 17 August, Friday

    Time Temperature Precipitation Wind Pressure Humidity
    00:00 +31°C° 0.5 mm 1 mps 708 mmHg 64%
    01:00 +30°C° 1 mm 1 mps 707 mmHg 66%
    02:00 +30°C° 1 mm 1 mps 707 mmHg 67%
    03:00 +29°C° 0 mm 2 mps 707 mmHg 68%
    04:00 +29°C° 0.8 mm 2 mps 707 mmHg 70%
    05:00 +29°C° 0.8 mm 1 mps 707 mmHg 71%
    06:00 +28°C° 0.8 mm 1 mps 707 mmHg 72%
    07:00 +29°C° 0.6 mm 2 mps 708 mmHg 70%
    08:00 +29°C° 0.6 mm 3 mps 708 mmHg 67%
    09:00 +30°C° 0.6 mm 4 mps 708 mmHg 65%
    10:00 +30°C° 0.1 mm 4 mps 708 mmHg 63%
    11:00 +31°C° 0.1 mm 3 mps 708 mmHg 61%
    12:00 +33°C° 0.1 mm 3 mps 708 mmHg 59%
    13:00 +33°C° 0.6 mm 3 mps 707 mmHg 57%
    14:00 +34°C° 0.6 mm 3 mps 707 mmHg 55%
    15:00 +34°C° 0.6 mm 3 mps 706 mmHg 53%
    16:00 +34°C° 1 mm 3 mps 706 mmHg 54%
    17:00 +34°C° 1 mm 3 mps 706 mmHg 55%
    18:00 +33°C° 1 mm 3 mps 706 mmHg 56%
    19:00 +33°C° 0.8 mm 3 mps 706 mmHg 58%
    20:00 +31°C° 0.8 mm 2 mps 706 mmHg 61%
    21:00 +31°C° 0.8 mm 2 mps 707 mmHg 63%
    22:00 +30°C° 0.5 mm 2 mps 707 mmHg 65%
    23:00 +30°C° 0.5 mm 2 mps 707 mmHg 67%

    Tomorrow, 18 August, Saturday

    Time Temperature Precipitation Wind Pressure Humidity
    00:00 +30°C° 0.5 mm 2 mps 707 mmHg 68%
    01:00 +29°C° 0.2 mm 2 mps 707 mmHg 70%
    02:00 +29°C° 0.2 mm 2 mps 706 mmHg 71%
    03:00 +28°C° 0.2 mm 2 mps 706 mmHg 73%
    04:00 +28°C° 0.5 mm 2 mps 706 mmHg 75%
    05:00 +28°C° 0.5 mm 2 mps 706 mmHg 76%
    06:00 +27°C° 0.5 mm 3 mps 706 mmHg 78%
    07:00 +27°C° 0.3 mm 3 mps 706 mmHg 75%
    08:00 +28°C° 0.3 mm 2 mps 707 mmHg 73%
    09:00 +28°C° 0.3 mm 2 mps 707 mmHg 70%
    10:00 +29°C° 0.8 mm 2 mps 707 mmHg 67%
    11:00 +30°C° 0.8 mm 2 mps 707 mmHg 63%
    12:00 +31°C° 0.8 mm 3 mps 707 mmHg 60%
    13:00 +32°C° 1.2 mm 2 mps 707 mmHg 57%
    14:00 +32°C° 1.2 mm 2 mps 706 mmHg 55%
    15:00 +34°C° 1.2 mm 2 mps 706 mmHg 53%
    16:00 +34°C° 0.9 mm 3 mps 705 mmHg 53%
    17:00 +34°C° 0.9 mm 3 mps 705 mmHg 54%
    18:00 +34°C° 0.9 mm 3 mps 705 mmHg 55%
    19:00 +33°C° 0.7 mm 3 mps 706 mmHg 58%
    20:00 +33°C° 0.7 mm 3 mps 706 mmHg 61%
    21:00 +31°C° 0.7 mm 2 mps 707 mmHg 64%
    22:00 +31°C° 0.5 mm 2 mps 707 mmHg 66%
    23:00 +30°C° 0.5 mm 2 mps 707 mmHg 68%

    Day after tomorrow, 19 August, Sunday

    Time Temperature Precipitation Wind Pressure Humidity
    00:00 +30°C° 0.5 mm 2 mps 707 mmHg 70%
    01:00 +30°C° 0.4 mm 2 mps 706 mmHg 72%
    02:00 +29°C° 0.4 mm 2 mps 706 mmHg 73%
    03:00 +29°C° 0.4 mm 2 mps 706 mmHg 75%
    04:00 +28°C° 0.2 mm 2 mps 706 mmHg 76%
    05:00 +28°C° 0.2 mm 2 mps 706 mmHg 78%
    06:00 +27°C° 0.2 mm 2 mps 706 mmHg 79%
    07:00 +28°C° 0 mm 2 mps 706 mmHg 75%
    08:00 +29°C° 0 mm 2 mps 707 mmHg 72%
    09:00 +29°C° 0 mm 2 mps 707 mmHg 68%
    10:00 +30°C° 0.1 mm 2 mps 707 mmHg 64%
    11:00 +31°C° 0.1 mm 2 mps 707 mmHg 60%
    12:00 +32°C° 0.1 mm 2 mps 707 mmHg 56%
    13:00 +34°C° 0.5 mm 2 mps 706 mmHg 53%
    14:00 +35°C° 0.5 mm 3 mps 706 mmHg 50%
    15:00 +35°C° 0.5 mm 3 mps 705 mmHg 47%
    16:00 +35°C° 0.7 mm 3 mps 705 mmHg 48%
    17:00 +35°C° 0.7 mm 3 mps 705 mmHg 49%
    18:00 +35°C° 0.7 mm 4 mps 705 mmHg 50%
    19:00 +34°C° 1 mm 4 mps 706 mmHg 53%
    20:00 +33°C° 1 mm 4 mps 707 mmHg 57%
    21:00 +33°C° 1 mm 4 mps 707 mmHg 60%
    22:00 +32°C° 0.1 mm 4 mps 707 mmHg 63%
    23:00 +30°C° 0.1 mm 4 mps 707 mmHg 65%

    20 August, Monday

    Time Temperature Precipitation Wind Pressure Humidity
    00:00 +30°C° 0.1 mm 4 mps 707 mmHg 68%
    01:00 +29°C° 0.7 mm 4 mps 707 mmHg 70%
    02:00 +28°C° 0.7 mm 3 mps 707 mmHg 72%
    03:00 +28°C° 0.7 mm 3 mps 706 mmHg 74%
    04:00 +27°C° 0.3 mm 3 mps 706 mmHg 74%
    05:00 +27°C° 0.3 mm 3 mps 707 mmHg 75%
    06:00 +27°C° 0.3 mm 2 mps 707 mmHg 75%
    07:00 +27°C° 0 mm 2 mps 707 mmHg 72%
    08:00 +28°C° 0 mm 2 mps 708 mmHg 70%
    09:00 +28°C° 0 mm 2 mps 708 mmHg 67%
    10:00 +29°C° 0 mm 2 mps 708 mmHg 62%
    11:00 +31°C° 0 mm 2 mps 708 mmHg 57%
    12:00 +32°C° 0 mm 2 mps 708 mmHg 52%
    13:00 +34°C° 0.2 mm 3 mps 707 mmHg 50%
    14:00 +34°C° 0.2 mm 3 mps 707 mmHg 48%
    15:00 +35°C° 0.2 mm 3 mps 706 mmHg 45%
    16:00 +35°C° 0.2 mm 3 mps 706 mmHg 46%
    17:00 +35°C° 0.2 mm 3 mps 706 mmHg 47%
    18:00 +35°C° 0.2 mm 4 mps 706 mmHg 48%
    19:00 +34°C° 0.4 mm 4 mps 707 mmHg 52%
    20:00 +33°C° 0.4 mm 4 mps 707 mmHg 55%
    21:00 +33°C° 0.4 mm 4 mps 708 mmHg 58%
    22:00 +32°C° 0.1 mm 4 mps 708 mmHg 61%
    23:00 +31°C° 0.1 mm 3 mps 708 mmHg 63%

    21 August, Tuesday

    Time Temperature Precipitation Wind Pressure Humidity
    00:00 +30°C° 0.1 mm 3 mps 708 mmHg 66%
    01:00 +29°C° 0.1 mm 3 mps 708 mmHg 67%
    02:00 +29°C° 0.1 mm 3 mps 707 mmHg 69%
    03:00 +28°C° 0.1 mm 3 mps 707 mmHg 71%
    04:00 +28°C° 0 mm 3 mps 707 mmHg 72%
    05:00 +28°C° 0 mm 3 mps 708 mmHg 73%
    06:00 +28°C° 0 mm 3 mps 708 mmHg 73%
    07:00 +28°C° 0 mm 3 mps 708 mmHg 70%
    08:00 +29°C° 0 mm 3 mps 709 mmHg 66%
    09:00 +29°C° 0 mm 3 mps 709 mmHg 63%
    10:00 +30°C° 0 mm 3 mps 709 mmHg 59%
    11:00 +31°C° 0 mm 3 mps 709 mmHg 56%
    12:00 +33°C° 0 mm 3 mps 708 mmHg 52%
    13:00 +34°C° 0 mm 3 mps 708 mmHg 50%
    14:00 +35°C° 0 mm 3 mps 707 mmHg 48%
    15:00 +35°C° 0 mm 3 mps 707 mmHg 45%
    16:00 +35°C° 0.2 mm 3 mps 707 mmHg 46%
    17:00 +35°C° 0.2 mm 3 mps 707 mmHg 47%
    18:00 +35°C° 0.2 mm 4 mps 707 mmHg 48%
    19:00 +34°C° 0.1 mm 3 mps 707 mmHg 50%
    20:00 +34°C° 0.1 mm 3 mps 707 mmHg 52%
    21:00 +34°C° 0.1 mm 2 mps 708 mmHg 54%
    22:00 +32°C° 0 mm 2 mps 708 mmHg 55%
    23:00 +32°C° 0 mm 2 mps 708 mmHg 57%

    22 August, Wednesday

    Time Temperature Precipitation Wind Pressure Humidity
    00:00 +31°C° 0 mm 2 mps 707 mmHg 59%
    01:00 +31°C° 0 mm 2 mps 707 mmHg 61%
    02:00 +31°C° 0 mm 2 mps 707 mmHg 63%
    03:00 +30°C° 0 mm 2 mps 706 mmHg 65%
    04:00 +30°C° 0 mm 2 mps 706 mmHg 67%
    05:00 +29°C° 0 mm 2 mps 707 mmHg 69%
    06:00 +29°C° 0 mm 2 mps 707 mmHg 70%
    07:00 +30°C° 0 mm 2 mps 707 mmHg 67%
    08:00 +30°C° 0 mm 2 mps 708 mmHg 64%
    09:00 +31°C° 0 mm 2 mps 708 mmHg 60%
    10:00 +32°C° 0 mm 2 mps 708 mmHg 56%
    11:00 +34°C° 0 mm 3 mps 707 mmHg 52%
    12:00 +35°C° 0 mm 3 mps 707 mmHg 47%
    13:00 +36°C° 0.5 mm 3 mps 707 mmHg 46%
    14:00 +36°C° 0.5 mm 4 mps 706 mmHg 45%
    15:00 +37°C° 0.5 mm 4 mps 705 mmHg 44%
    16:00 +36°C° 0.9 mm 4 mps 705 mmHg 45%
    17:00 +36°C° 0.9 mm 4 mps 706 mmHg 47%
    18:00 +36°C° 0.9 mm 4 mps 706 mmHg 48%
    19:00 +35°C° 0.2 mm 3 mps 706 mmHg 52%
    20:00 +34°C° 0.2 mm 3 mps 706 mmHg 55%
    21:00 +34°C° 0.2 mm 2 mps 707 mmHg 58%
    22:00 +32°C° 0.1 mm 2 mps 706 mmHg 60%
    23:00 +32°C° 0.1 mm 2 mps 706 mmHg 62%
    Show more